CZ-4C R/B, 54250

Orbit data source: Space-Track

CZ-4C R/B, 54250 is space debris in LEO originally from a launch on Tue, 15 Nov 2022 UTC launched from the Jiuquan Satellite Launch Center, China (JSC). Debris objects in space refer to the collection of defunct objects orbiting the Earth. Examples of debris include non-operational satellites, rocket bodies, and fragments generated from explosions, collisions, or faulty payload assembly.

Loading next visibility...
Identifier
54250, 2022-154B
Orbit
LEO
Country
Flag of CNCN / PRC
Related business
Manufacturer
SAST
Mission
Spacecraft
Bus & Motor
CZ-4 STAGE 3, Unknown motor
Mass
~1,000 kg wet, ~1,000 kg dry
Launch date (UTC)
2022-11-15 (4 years ago)
Launch vehicle
Unknown
Launch site
Jiuquan Satellite Launch Center, China (JSC)
Object type
Payload
Rocket body
Debris
Shape & HBR
Cyl, 2.5 m
Radar Cross Section
14.536 m², Large (>1 m²)

Expand to show TLE details & history
Last TLE update: 2 days ago

TLE from 2 days ago
0 CZ-4C R/B
1 54250U 22154B   26171.19854606 -.00000023  00000-0  70614-4 0  9994
2 54250  63.4049 113.4084 0230479  24.4736 336.7038 13.69006653179765
Epoch: 2026-06-20T04:45Z
TLE epoch observation values (Epoch: 2026-06-20T04:45:54.379Z)
Latitude
-0.00007°
Longitude
133.51518°
Altitude
849.29 km
Speed
7.506 km/s
True Right ascension
07h 33m 38s
True Declination
0° 00' 00"
Sunlit
Object was in daylight at epoch
Visualization orbit readout
Latitude
Unknown
Longitude
Unknown
Altitude
Unknown
Speed
Unknown
Apparent Right ascension
Unknown
Apparent Declination
Unknown
Sunlit
N/A
Visualization observer readout
Local Sidereal Time
21:34:03
Azimuth
Unknown
Elevation
Unknown
Doppler factor
Unknown
Orbital elements
Apogee altitude
1,172.049 km
Perigee altitude
831.858 km
Semi-major axis
7,380.091 km
Eccentricity
0.02305
Inclination
63.4049°
RAAN
113.4084°
Arg. of periapsis
24.4736°
True anomaly
335.63099°
Mean anomaly
336.7038°
Eccentric anomaly
336.17027°
Mean motion
3.42334 °/min
Orbital period
105.16 mins
BSTAR
0.000070614
Loading maneuver chart data...
Computing Atmospheric mass density...
Loading historical data...
Loading historical data...
Loading historical data...
Loading historical data...
Loading historical data...
Loading historical data...
Loading historical data...
Other satellites on launch #154 in the year 2022 (2022-11-15 UTC)

Documentation

Showing up to 5 results
|